Regional Weather Roundup
Issued by NWS Little Rock, AR

Home | Current Version | Previous Version | Graphics & Text | Print | Product List | Glossary On
Versions: 1 2 3 4 5 6 7 8 9 10 11 12 13 14 15 16 17 18 19 20 21 22 23 24 25 26 27 28 29 30 31 32 33 34 35 36 37 38 39 40 41 42 43 44 45 46 47 48 49 50
000
ASUS44 KLZK 030505
RWRLZK

WEATHER ROUNDUP FOR ARKANSAS
NATIONAL WEATHER SERVICE LITTLE ROCK AR
1100 PM CST MON MAR 02 2015

NOTE: "FAIR" INDICATES FEW OR NO CLOUDS BELOW 12,000 FEET WITH NO
SIGNIFICANT WEATHER AND/OR OBSTRUCTIONS TO VISIBILITY.

ARZ001-003-010-029-030600-
NORTHWEST ARKANSAS

CITY           SKY/WX    TMP DP  RH WIND       PRES   REMARKS
FAYETTEVILLE   CLOUDY    37  35  92 S9        30.11F
FORT SMITH     CLOUDY    37  31  78 E9        30.18F
HARRISON       CLOUDY    34  26  72 SE9       30.12F WCI  27
BENTONVILLE    CLOUDY    37  30  75 S6        30.11F
ROGERS         CLOUDY    36  31  82 SE5       30.10F
SILOAM SPGS    CLOUDY    37  28  70 S8        30.11F
HIGHFILL       CLOUDY    36  33  89 S5        30.10F
$$

ARZ004-005-016-030600-
NORTH CENTRAL ARKANSAS

CITY           SKY/WX    TMP DP  RH WIND       PRES   REMARKS
BATESVILLE     CLOUDY    34  25  69 SE3       30.25S
FLIPPIN        CLOUDY    34  21  60 SE7       30.18F WCI  28
MTN HOME       CLOUDY    32  23  69 SE9       30.18F WCI  24
$$

ARZ040-041-030600-
WEST CENTRAL ARKANSAS

CITY           SKY/WX    TMP DP  RH WIND       PRES   REMARKS
MENA           CLOUDY    37  36  93 E3        30.17F VSB 1/2
MOUNT IDA      CLOUDY    35  33  92 SE5       30.17F FOG     WCI  31
$$

ARZ009-017-025-026-028-030600-
NORTHEAST ARKANSAS

CITY           SKY/WX    TMP DP  RH WIND       PRES   REMARKS
CORNING        CLOUDY    34  27  75 CALM      30.24F
JONESBORO      CLOUDY    34  25  69 NE5       30.24F WCI  30
NEWPORT        CLOUDY    34  28  79 NW3       30.27F
WALNUT RIDGE   CLOUDY    34  25  69 N3        30.25F
BLYTHEVILLE    CLOUDY    35  31  85 NW5       30.24F WCI  31
$$

ARZ022-023-033-042-044-030600-
CENTRAL ARKANSAS

CITY           SKY/WX    TMP DP  RH WIND       PRES   REMARKS
LITTLE ROCK    CLOUDY    36  32  87 E5        30.24F FOG
N LITTLE ROCK  CLOUDY    33  33 100 E7        30.24F WCI  27
JACKSONVILLE   CLOUDY    34  33  95 NE1       30.23F FOG
SEARCY         CLOUDY    34  32  92 CALM      30.26F FOG
HOT SPRINGS    CLOUDY    35  32  88 SE5       30.23F WCI  31
RUSSELLVILLE   CLOUDY    51  30  44 VRB5      30.21F
CLINTON        CLOUDY    36  28  75 CALM      30.24F
$$

ARZ036-030600-
EAST ARKANSAS

CITY           SKY/WX    TMP DP  RH WIND       PRES   REMARKS
WEST MEMPHIS   CLOUDY    36  34  92 CALM      30.23F
$$

ARZ050-053-066-070-073-030600-
SOUTHWEST ARKANSAS

CITY           SKY/WX    TMP DP  RH WIND       PRES   REMARKS
ARKADELPHIA    CLOUDY    36  36 100 NE3       30.25F FOG
CAMDEN         CLOUDY    36  34  93 CALM      30.25F FOG
TEXARKANA      CLOUDY    36  36 100 E3        30.21F FOG
EL DORADO      CLOUDY    37  36  96 NE5       30.23F FOG
DE QUEEN       CLOUDY    37  35  92 SE9       30.20F FOG
$$

ARZ056-057-069-030600-
SOUTHEAST ARKANSAS

CITY           SKY/WX    TMP DP  RH WIND       PRES   REMARKS
PINE BLUFF     FOG       35  35 100 CALM      30.24F VSB 3/4
STUTTGART      CLOUDY    36  32  87 NE6       30.24F
MONTICELLO     FOG       37  36  96 CALM      30.23F VSB 1/2

$$




USA.gov is the U.S. government's official web portal to all federal, state and local government web resources and services.